Zurück zum Katalog

TRISAT-S

AktivSSO
NORAD 98406·PAYLOAD
Loading…

Nächste Überflüge (nächste 24 Stunden)

TLE

AktuellSource: SatNOGS

Epoche: Sep 13, 2026, 03:44 UTC

1 98406U 26203D   26256.15587027  .00002182  00000-0  16311-3 0  9994
2 98406  97.4197 331.1616 0057396 252.5221 106.9726 15.02515306  1107

Verfolge TRISAT-S in Echtzeit mit AllMySat

Download on the App Store